When you browse on this site, cookies collect data to enhance your experience and personalize the content and advertising you see.
Visit our Privacy Policy to learn more. By continuing to use the site, you agree to this use of cookies and data.
  • In United Kingdom
  • List of Countries
  • For 7 days
  • Water Temperature
  • Weather Map
  • Weather Widgets
  • user-avatar
    Login

    Hourly Weather Uplawmoor

    Today, 29 January, Wednesday

    Time Temperature Precipitation Wind Pressure Humidity
    00:00 +1°C° 0 mm 6 mps 728 mmHg 81%
    01:00 +1°C° 0.1 mm 6 mps 729 mmHg 81%
    02:00 +1°C° 0.1 mm 6 mps 730 mmHg 81%
    03:00 -1°C° 0.1 mm 6 mps 730 mmHg 81%
    04:00 -1°C° 0.1 mm 6 mps 731 mmHg 81%
    05:00 -1°C° 0.1 mm 6 mps 731 mmHg 80%
    06:00 -1°C° 0.1 mm 6 mps 732 mmHg 80%
    07:00 0°C° 0 mm 5 mps 732 mmHg 81%
    08:00 0°C° 0 mm 5 mps 732 mmHg 81%
    09:00 0°C° 0 mm 5 mps 732 mmHg 82%
    10:00 +1°C° 0.6 mm 6 mps 732 mmHg 87%
    11:00 +1°C° 0.6 mm 6 mps 732 mmHg 91%
    12:00 0°C° 0.6 mm 7 mps 731 mmHg 96%
    13:00 +1°C° 2.6 mm 8 mps 731 mmHg 95%
    14:00 +2°C° 2.6 mm 9 mps 730 mmHg 94%
    15:00 +3°C° 2.6 mm 10 mps 729 mmHg 93%
    16:00 +5°C° 1.1 mm 9 mps 729 mmHg 92%
    17:00 +5°C° 1.1 mm 8 mps 730 mmHg 92%
    18:00 +5°C° 1.1 mm 7 mps 730 mmHg 92%
    19:00 +5°C° 1.4 mm 7 mps 730 mmHg 92%
    20:00 +5°C° 1.4 mm 7 mps 731 mmHg 93%
    21:00 +5°C° 1.4 mm 7 mps 731 mmHg 93%
    22:00 +5°C° 0.9 mm 8 mps 731 mmHg 92%
    23:00 +5°C° 0.9 mm 8 mps 732 mmHg 91%

    Tomorrow, 30 January, Thursday

    Time Temperature Precipitation Wind Pressure Humidity
    00:00 +5°C° 0.9 mm 8 mps 732 mmHg 90%
    01:00 +5°C° 0.1 mm 8 mps 732 mmHg 90%
    02:00 +5°C° 0.1 mm 7 mps 732 mmHg 90%
    03:00 +5°C° 0.1 mm 6 mps 731 mmHg 91%
    04:00 +4°C° 0 mm 6 mps 731 mmHg 90%
    05:00 +4°C° 0 mm 6 mps 730 mmHg 90%
    06:00 +4°C° 0 mm 6 mps 730 mmHg 90%
    07:00 +4°C° 0.5 mm 7 mps 729 mmHg 89%
    08:00 +4°C° 0.5 mm 8 mps 728 mmHg 89%
    09:00 +4°C° 0.5 mm 8 mps 727 mmHg 88%
    10:00 +5°C° 0.2 mm 9 mps 726 mmHg 88%
    11:00 +6°C° 0.2 mm 10 mps 725 mmHg 88%
    12:00 +7°C° 0.2 mm 10 mps 725 mmHg 87%
    13:00 +6°C° 0.2 mm 10 mps 725 mmHg 85%
    14:00 +6°C° 0.2 mm 10 mps 725 mmHg 82%
    15:00 +4°C° 0.2 mm 11 mps 725 mmHg 79%
    16:00 +5°C° 0 mm 10 mps 726 mmHg 79%
    17:00 +5°C° 0 mm 9 mps 727 mmHg 78%
    18:00 +3°C° 0 mm 9 mps 728 mmHg 78%
    19:00 +4°C° 0 mm 8 mps 729 mmHg 78%
    20:00 +2°C° 0 mm 8 mps 729 mmHg 78%
    21:00 +2°C° 0 mm 8 mps 730 mmHg 79%
    22:00 +3°C° 0 mm 7 mps 730 mmHg 81%
    23:00 +3°C° 0 mm 6 mps 730 mmHg 82%

    Day after tomorrow, 31 January, Friday

    Time Temperature Precipitation Wind Pressure Humidity
    00:00 +2°C° 0 mm 6 mps 730 mmHg 84%
    01:00 +3°C° 0.2 mm 6 mps 730 mmHg 86%
    02:00 +3°C° 0.2 mm 6 mps 729 mmHg 88%
    03:00 +3°C° 0.2 mm 6 mps 729 mmHg 90%
    04:00 +4°C° 1.4 mm 6 mps 729 mmHg 92%
    05:00 +6°C° 1.4 mm 7 mps 728 mmHg 94%
    06:00 +8°C° 1.4 mm 7 mps 728 mmHg 95%
    07:00 +8°C° 0.4 mm 7 mps 728 mmHg 95%
    08:00 +8°C° 0.4 mm 6 mps 728 mmHg 94%
    09:00 +8°C° 0.4 mm 6 mps 728 mmHg 94%
    10:00 +9°C° 0.1 mm 6 mps 728 mmHg 93%
    11:00 +9°C° 0.1 mm 6 mps 729 mmHg 92%
    12:00 +9°C° 0.1 mm 7 mps 729 mmHg 91%
    13:00 +9°C° 0 mm 7 mps 728 mmHg 89%
    14:00 +9°C° 0 mm 7 mps 728 mmHg 88%
    15:00 +9°C° 0 mm 8 mps 727 mmHg 86%
    16:00 +9°C° 0.1 mm 8 mps 727 mmHg 86%
    17:00 +9°C° 0.1 mm 8 mps 727 mmHg 86%
    18:00 +7°C° 0.1 mm 8 mps 726 mmHg 86%
    19:00 +7°C° 0.1 mm 8 mps 726 mmHg 86%
    20:00 +7°C° 0.1 mm 8 mps 726 mmHg 85%
    21:00 +6°C° 0.1 mm 8 mps 725 mmHg 85%
    22:00 +6°C° 0.1 mm 8 mps 725 mmHg 83%
    23:00 +5°C° 0.1 mm 8 mps 725 mmHg 82%

    1 February, Saturday

    Time Temperature Precipitation Wind Pressure Humidity
    00:00 +5°C° 0.1 mm 8 mps 725 mmHg 81%
    01:00 +4°C° 0.1 mm 8 mps 724 mmHg 80%
    02:00 +3°C° 0.1 mm 9 mps 724 mmHg 79%
    03:00 +2°C° 0.1 mm 9 mps 724 mmHg 78%
    04:00 +2°C° 0.3 mm 9 mps 723 mmHg 81%
    05:00 +2°C° 0.3 mm 10 mps 722 mmHg 85%
    06:00 +2°C° 0.3 mm 10 mps 722 mmHg 88%
    07:00 +3°C° 0.4 mm 10 mps 722 mmHg 87%
    08:00 +3°C° 0.4 mm 10 mps 722 mmHg 86%
    09:00 +5°C° 0.4 mm 10 mps 722 mmHg 85%
    10:00 +4°C° 0.2 mm 11 mps 723 mmHg 83%
    11:00 +4°C° 0.2 mm 11 mps 724 mmHg 81%
    12:00 +4°C° 0.2 mm 11 mps 725 mmHg 80%
    13:00 +5°C° 0.1 mm 10 mps 726 mmHg 79%
    14:00 +5°C° 0.1 mm 10 mps 728 mmHg 77%
    15:00 +5°C° 0.1 mm 9 mps 730 mmHg 76%
    16:00 +4°C° 0 mm 8 mps 731 mmHg 78%
    17:00 +4°C° 0 mm 6 mps 733 mmHg 80%
    18:00 +3°C° 0 mm 5 mps 734 mmHg 82%
    19:00 +3°C° 0 mm 4 mps 735 mmHg 84%
    20:00 +3°C° 0 mm 3 mps 736 mmHg 86%
    21:00 +3°C° 0 mm 2 mps 737 mmHg 88%
    22:00 +3°C° 0 mm 2 mps 738 mmHg 89%
    23:00 +3°C° 0 mm 2 mps 738 mmHg 90%

    2 February, Sunday

    Time Temperature Precipitation Wind Pressure Humidity
    00:00 +3°C° 0 mm 2 mps 738 mmHg 91%
    01:00 +3°C° 0 mm 2 mps 738 mmHg 91%
    02:00 +3°C° 0 mm 2 mps 738 mmHg 91%
    03:00 +3°C° 0 mm 3 mps 738 mmHg 90%
    04:00 +2°C° 0.3 mm 3 mps 737 mmHg 91%
    05:00 +1°C° 0.3 mm 4 mps 736 mmHg 93%
    06:00 +1°C° 0.3 mm 4 mps 736 mmHg 94%
    07:00 +1°C° 0.5 mm 4 mps 735 mmHg 94%
    08:00 0°C° 0.5 mm 4 mps 735 mmHg 95%
    09:00 0°C° 0.5 mm 4 mps 734 mmHg 95%
    10:00 +1°C° 0.7 mm 4 mps 734 mmHg 94%
    11:00 +3°C° 0.7 mm 4 mps 734 mmHg 94%
    12:00 +4°C° 0.7 mm 4 mps 734 mmHg 93%
    13:00 +5°C° 0.3 mm 4 mps 735 mmHg 91%
    14:00 +6°C° 0.3 mm 5 mps 735 mmHg 89%
    15:00 +7°C° 0.3 mm 6 mps 735 mmHg 87%
    16:00 +5°C° 0.3 mm 6 mps 736 mmHg 88%
    17:00 +6°C° 0.3 mm 5 mps 736 mmHg 89%
    18:00 +5°C° 0.3 mm 5 mps 736 mmHg 90%
    19:00 +5°C° 0.1 mm 5 mps 737 mmHg 90%
    20:00 +5°C° 0.1 mm 5 mps 737 mmHg 90%
    21:00 +5°C° 0.1 mm 5 mps 738 mmHg 91%
    22:00 +4°C° 0 mm 4 mps 738 mmHg 92%
    23:00 +4°C° 0 mm 4 mps 738 mmHg 92%

    3 February, Monday

    Time Temperature Precipitation Wind Pressure Humidity
    00:00 +4°C° 0 mm 3 mps 737 mmHg 93%
    01:00 +4°C° 0 mm 3 mps 736 mmHg 93%
    02:00 +5°C° 0 mm 2 mps 735 mmHg 94%
    03:00 +5°C° 0 mm 2 mps 734 mmHg 95%
    04:00 +4°C° 1.5 mm 4 mps 732 mmHg 94%
    05:00 +3°C° 1.5 mm 5 mps 730 mmHg 94%
    06:00 +3°C° 1.5 mm 7 mps 728 mmHg 93%
    07:00 +4°C° 2 mm 8 mps 727 mmHg 92%
    08:00 +4°C° 2 mm 8 mps 727 mmHg 91%
    09:00 +5°C° 2 mm 9 mps 726 mmHg 89%
    10:00 +5°C° 0.1 mm 9 mps 726 mmHg 87%
    11:00 +5°C° 0.1 mm 9 mps 726 mmHg 84%
    12:00 +5°C° 0.1 mm 10 mps 726 mmHg 81%
    13:00 +5°C° 0.2 mm 9 mps 726 mmHg 81%
    14:00 +5°C° 0.2 mm 9 mps 725 mmHg 81%
    15:00 +5°C° 0.2 mm 8 mps 725 mmHg 81%
    16:00 +4°C° 0.2 mm 8 mps 725 mmHg 83%
    17:00 +4°C° 0.2 mm 7 mps 724 mmHg 84%
    18:00 +4°C° 0.2 mm 7 mps 724 mmHg 86%
    19:00 +4°C° 0.4 mm 6 mps 724 mmHg 86%
    20:00 +3°C° 0.4 mm 6 mps 724 mmHg 87%
    21:00 +3°C° 0.4 mm 6 mps 724 mmHg 87%
    22:00 +3°C° 0.1 mm 5 mps 724 mmHg 88%
    23:00 +3°C° 0.1 mm 5 mps 724 mmHg 89%
    Show more